Starlink 11141

operational
NORAD ID: 60066 Int'l Des: 2024-113 Owner: SPXS Country: US Constellation: starlink
LEOCIRCULAR

关于 Starlink 11141

正在加载描述...

实时位置

正在加载3D地球...

即将过境

高度历史

Altitude vs Time

uPlot chart will show altitude changes over time

两行轨道根数

1 60066U 24113H 25258.46423320 -.00000137 00000-0 37219-5 0 9994
2 60066 53.1576 334.7470 0000945 79.7975 280.3149 15.69711037 72047
Epoch: Sep 15, 2025 • Age: 16 hours

当前状态

高度 368.1 km
速度 7.69 km/s
星下点 -26.88°S, 128.32°E
发射日期 Jun 19, 2024
运行时间 1.2 years
类型 internet

技术详情

分类 Payload
质量 960.00 kg
干质量 910.00 kg
总质量 960.00 kg
长度 0.30 m
直径 4.10 m
跨度 29.00 m
形状 Box + pan
制造商 SPXS
平台类型 Starlink V2MD
阶段状态 In Orbit
所有者/国家 SPXS/US

大型星座

Loading constellations...